Date,TemperatureHighF,TemperatureAvgF,TemperatureLowF,DewpointHighF,DewpointAvgF,DewpointLowF,HumidityHigh,HumidityAvg,HumidityLow,PressureMaxIn,PressureMinIn,WindSpeedMaxMPH,WindSpeedAvgMPH,GustSpeedMaxMPH,PrecipitationSumIn
2013-2-1,58,44,29,27,21,16,60,42,24,29.89,29.77,9,2,9,0.00
2013-2-2,60,48,33,26,22,18,57,37,24,29.97,29.87,10,2,10,0.00
2013-2-3,55,45,34,29,22,18,53,41,27,29.90,29.63,8,1,8,0.00
2013-2-4,62,50,39,33,26,19,64,42,23,29.74,29.62,14,3,14,0.00
2013-2-5,62,49,36,28,20,16,53,34,18,29.73,29.60,10,2,10,0.00
2013-2-6,65,48,33,31,22,15,50,36,25,29.64,29.50,13,2,13,0.00
2013-2-7,61,49,38,31,22,11,56,36,20,29.77,29.63,8,2,8,0.00
2013-2-8,59,48,38,26,22,16,46,35,27,29.73,29.41,26,6,26,0.00
2013-2-9,53,40,32,25,16,7,57,39,21,29.48,29.30,33,9,33,0.13
2013-2-10,49,38,28,22,15,11,60,40,24,29.59,29.47,14,5,14,0.00
2013-2-11,51,39,26,25,18,5,63,45,17,29.64,29.51,17,4,17,0.00
2013-2-12,46,36,28,22,14,8,63,42,23,29.78,29.57,13,5,13,0.00
2013-2-13,52,39,24,16,13,6,48,36,23,29.78,29.65,14,4,14,0.00
2013-2-14,56,44,30,24,18,14,52,37,22,29.81,29.66,16,4,16,0.00
2013-2-15,55,42,29,26,14,4,56,35,14,29.96,29.80,24,4,24,0.01
2013-2-16,61,44,27,19,8,-1,42,24,11,30.01,29.75,11,2,11,0.00
2013-2-17,61,46,27,14,5,0,32,20,10,29.76,29.37,19,5,19,0.00
2013-2-18,57,47,37,18,2,-13,42,16,6,29.70,29.46,21,4,21,0.00
2013-2-19,61,46,28,36,6,-12,63,23,11,29.70,29.39,29,7,29,0.00
2013-2-20,54,46,36,36,28,18,68,52,27,29.41,29.20,26,7,26,0.00
2013-2-21,53,41,32,28,24,18,80,54,29,29.53,29.23,19,4,19,0.00
2013-2-22,46,39,32,24,20,14,60,47,30,29.66,29.51,14,3,14,0.00
2013-2-23,50,40,23,19,13,9,54,36,21,29.69,29.36,16,3,16,0.00
2013-2-24,46,38,32,24,15,5,69,41,24,29.52,29.31,17,6,17,0.01
2013-2-25,52,41,29,20,11,1,57,33,15,29.68,29.51,13,5,13,0.00
2013-2-26,55,39,26,18,5,-8,44,26,12,29.70,29.47,19,5,19,0.01
2013-2-27,52,39,27,15,5,-2,39,25,16,29.87,29.70,12,2,12,0.00
2013-2-28,56,42,28,13,4,-2,37,22,11,29.91,29.79,13,3,13,0.00